Wind_Speed
17 17 17 15 13 11 8 9 9 9 8 8 7 4 2 2 2 3 4 4 3 2 2 2 2 3 4 5 7 9 10 11 11 11 11 11 12 12 12 12 13 13 14 14 14 15 15 16 17
15 14 12 11 10 6 8 10 10 10 9 7 6 4 3 2 2 2 2 2 2 2 2 2 2 2 2 3 5 7 9 10 11 11 11 12 12 13 13 14 14 15 15 16 16 16 16 17 18
13 12 11 10 10 10 10 10 10 10 8 7 5 4 3 3 3 3 3 3 3 4 3 3 3 2 1 2 3 5 6 7 8 9 9 10 10 11 11 12 13 14 15 15 16 17 18 19 20
11 12 11 11 11 11 11 10 9 8 6 4 2 2 3 3 3 3 3 4 4 5 4 4 4 4 3 4 4 4 4 5 6 6 7 7 8 9 10 11 12 13 14 15 16 16 18 19 20
11 13 13 12 12 11 10 8 7 6 5 2 1 2 3 4 5 5 4 4 4 5 5 6 7 6 5 4 5 5 5 5 6 7 7 8 9 10 11 12 13 14 15 16 17 17 18 19 20
12 14 14 12 13 11 10 8 7 5 3 2 3 4 6 7 8 7 6 5 5 5 6 7 8 7 6 5 6 6 6 7 8 8 9 10 11 12 12 13 14 15 16 17 18 19 19 20 21
13 14 16 15 13 11 9 8 8 6 3 1 4 6 7 8 9 8 7 7 6 6 6 7 7 7 7 7 7 8 9 9 10 11 12 13 14 14 14 15 15 16 17 18 19 20 21 22 23
12 14 15 15 13 11 8 8 8 6 4 1 2 6 8 10 10 9 8 7 7 6 6 6 6 6 7 8 9 10 11 12 13 14 14 15 15 15 16 16 16 16 17 18 19 21 22 23 25
12 14 16 16 15 12 9 7 6 6 5 3 3 5 8 9 10 10 9 8 8 7 7 7 7 7 7 8 10 11 12 14 14 15 15 15 16 16 16 16 16 17 18 19 21 23 24 25 26
13 16 17 15 14 12 11 9 7 7 7 5 5 6 8 10 11 12 11 10 9 8 8 8 8 8 9 10 11 12 13 14 15 16 16 16 16 15 15 15 16 17 19 21 22 23 24 25 25
14 17 14 14 14 13 12 11 8 9 9 7 7 8 9 11 12 13 13 12 11 10 9 9 9 9 10 11 12 12 13 14 15 16 16 16 17 16 16 17 18 19 20 21 22 23 23 24 24
16 17 16 16 15 16 15 13 12 11 8 10 11 11 11 13 13 14 14 14 12 11 10 10 9 9 10 10 11 12 12 13 14 15 15 16 16 16 17 17 18 19 20 21 22 23 24 25 27
19 19 19 19 18 19 18 16 15 15 12 13 13 13 14 15 15 15 15 15 15 13 12 10 9 9 9 10 10 10 11 11 11 12 12 13 13 14 15 16 18 20 21 23 25 27 28 30 31
24 22 22 22 22 21 21 20 19 19 17 17 17 16 16 17 18 18 17 16 16 15 13 11 10 9 9 9 9 9 10 10 10 11 11 12 12 14 15 17 18 20 22 24 27 29 31 33 35
27 25 25 27 26 25 23 24 24 24 22 20 19 19 19 20 21 20 19 17 16 16 14 12 11 9 9 9 9 10 10 11 12 13 13 13 14 15 16 17 19 21 23 25 28 30 33 35 37
31 30 30 32 32 30 27 23 29 28 27 25 23 22 22 22 23 23 21 18 17 16 15 14 13 11 11 11 11 12 13 14 15 15 15 16 16 17 18 20 21 23 25 28 30 33 36 38 40
34 35 34 34 36 35 33 28 36 32 32 30 28 26 25 25 26 26 23 21 19 18 17 17 17 15 14 14 15 16 16 17 18 19 19 19 20 21 23 24 26 28 30 32 35 37 40 42 43
35 38 39 38 39 38 39 39 41 38 37 35 33 31 29 29 29 29 27 25 22 21 21 21 21 20 18 18 18 19 20 21 22 23 23 24 25 26 27 29 31 33 35 37 40 42 44 46 47
37 37 39 42 44 41 44 46 46 44 41 39 37 35 34 32 32 30 29 28 27 26 26 27 26 25 23 21 21 23 23 24 25 27 28 28 30 31 32 34 36 38 40 43 45 47 49 50 51
35 36 38 39 43 44 48 50 49 47 44 42 41 39 37 36 33 31 32 32 32 31 32 32 33 30 27 25 25 26 27 28 30 32 33 34 35 36 37 38 40 42 45 47 49 51 53 55 56
35 36 37 39 41 43 47 48 48 48 46 44 43 42 40 37 34 32 34 36 36 36 35 36 37 35 33 31 30 30 31 32 35 38 39 41 42 43 44 45 46 48 50 52 53 55 56 57 59
34 36 37 39 40 41 46 47 41 45 45 42 41 40 39 38 35 34 34 37 37 38 38 39 39 39 36 35 34 35 35 37 40 43 45 47 48 50 50 52 53 54 56 56 57 57 58 59 60
33 36 37 39 40 42 46 47 42 43 46 40 39 38 37 37 36 35 36 37 39 40 40 41 41 40 39 38 38 38 39 41 45 47 49 52 54 55 56 57 58 59 59 59 59 59 59 60 60
30 32 34 36 39 43 42 44 41 34 39 36 36 36 36 38 38 39 40 42 43 43 43 42 42 42 42 41 41 41 43 45 47 49 51 54 55 56 56 57 57 58 58 58 59 60 60 60 60
28 29 31 32 34 36 34 39 37 33 35 35 34 34 34 35 36 38 40 42 43 44 44 45 45 44 44 44 43 43 45 47 49 51 53 55 55 55 55 55 56 56 56 58 59 60 60 60 59
29 30 31 30 26 25 26 32 29 32 33 33 32 32 32 32 32 34 35 38 40 42 44 46 46 45 44 43 43 45 48 50 52 53 54 54 54 53 53 53 53 55 57 59 60 60 59 59 58
29 30 29 31 32 32 30 29 31 32 31 29 29 30 30 30 30 30 31 32 34 37 40 41 41 41 41 42 44 46 49 50 52 52 52 51 50 50 51 52 54 56 58 59 59 59 59 59 58
29 29 30 32 31 32 31 28 25 24 24 25 25 26 26 26 26 26 27 28 30 32 34 36 38 38 40 41 42 44 47 48 50 51 49 48 50 52 53 54 55 56 57 58 58 58 58 57 56
30 31 31 29 27 27 28 25 24 27 26 24 24 24 24 24 25 26 26 27 28 30 32 34 36 37 39 40 42 45 46 48 50 50 50 51 51 52 52 53 55 56 57 58 58 57 57 56 56
31 32 30 30 28 28 29 26 27 29 27 25 25 24 24 25 27 28 29 30 30 32 34 35 37 38 40 42 44 47 49 51 51 52 52 51 50 51 52 53 55 56 57 57 56 56 56 57 57
Wind_Direction
208 211 216 217 214 213 212 224 239 253 267 278 283 283 271 251 263 268 279 294 307 317 341 355 335 312 291 272 258 248 243 243 247 252 258 263 267 269 268 266 264 263 263 262 260 257 255 252 252
204 205 206 203 191 180 214 223 235 249 264 272 278 291 312 332 337 341 339 8 2 13 33 36 17 343 300 265 254 246 242 242 247 253 258 263 269 272 274 273 272 270 268 267 264 262 260 258 257
199 192 184 178 169 166 196 212 230 247 259 267 280 302 327 343 350 350 344 351 352 3 17 10 350 341 333 276 258 249 244 244 247 253 258 265 271 275 277 277 276 274 271 268 267 265 264 263 263
187 175 169 163 156 171 186 205 227 237 243 258 279 320 346 0 9 1 345 332 335 342 340 327 314 301 289 273 256 239 241 248 255 262 267 273 278 281 281 280 278 276 272 269 267 266 266 267 268
172 165 163 158 162 177 196 211 221 229 226 216 150 62 22 28 30 20 3 343 335 333 319 303 296 291 280 267 246 238 243 253 264 271 273 274 274 275 278 280 279 276 274 273 271 270 270 271 272
166 164 164 168 181 192 208 225 233 233 216 153 101 70 39 33 37 32 20 4 357 345 320 300 291 286 277 258 250 248 255 262 269 273 274 275 275 276 277 279 279 278 276 276 276 275 275 274 273
172 172 176 183 192 204 224 242 247 249 230 108 85 63 42 35 34 29 22 19 15 1 335 314 303 290 277 267 264 265 268 271 274 275 276 278 278 279 279 280 280 279 280 281 282 282 280 277 275
185 182 185 195 204 218 241 261 271 265 263 301 53 49 37 33 28 21 14 13 8 359 347 333 317 301 290 283 280 281 281 280 280 281 283 284 284 283 283 282 281 282 284 285 285 283 282 280 277
202 193 199 208 215 226 243 262 278 290 299 303 343 12 19 20 19 12 4 360 356 352 347 342 330 320 311 303 298 295 292 291 290 291 291 290 289 288 288 286 286 288 288 289 289 286 283 282 280
213 207 215 220 229 238 247 258 288 312 327 328 332 341 353 2 5 3 355 346 342 340 339 335 329 325 318 314 311 307 303 301 300 300 299 297 296 296 295 293 294 294 295 294 294 292 290 287 285
225 223 228 230 237 244 252 258 283 315 326 323 318 323 335 342 348 350 346 340 334 330 329 330 329 329 324 319 317 314 312 309 307 306 305 302 302 302 300 299 298 298 298 297 298 298 296 294 292
234 237 237 237 239 246 252 257 272 296 303 303 307 309 318 324 329 336 336 333 330 324 321 320 325 332 331 327 324 319 316 315 313 310 308 306 305 304 301 300 301 301 301 301 300 299 298 297 296
239 242 243 244 244 247 252 256 266 279 289 302 304 302 304 306 309 317 321 322 323 320 316 314 320 328 334 336 333 330 328 324 321 320 316 311 308 305 303 301 301 301 301 300 299 298 297 296 296
242 245 248 249 249 251 254 259 264 271 284 296 299 296 293 293 295 302 307 312 316 316 313 309 314 325 332 337 338 336 334 330 325 322 317 312 309 307 305 304 303 303 302 302 302 301 300 298 297
245 246 249 250 251 252 256 261 265 268 276 286 292 290 285 284 286 289 293 299 305 309 308 305 307 315 322 326 326 326 325 324 324 323 318 313 310 308 307 307 307 306 307 306 305 304 301 299 297
242 244 244 249 251 254 256 256 261 267 272 279 286 285 280 276 276 277 281 285 291 297 299 296 296 300 305 311 313 313 315 316 316 317 318 315 312 310 307 307 307 307 308 309 309 308 305 301 298
238 240 240 245 252 254 255 245 256 266 269 274 280 282 278 272 268 270 272 274 279 286 290 288 286 286 292 298 303 304 305 308 311 312 313 312 310 307 304 303 303 303 305 307 307 308 305 302 299
237 236 237 239 252 252 254 254 262 266 268 271 276 278 277 272 267 267 267 267 271 277 283 282 279 277 280 288 294 296 298 301 304 306 306 305 303 302 300 299 299 299 300 302 304 305 304 302 299
239 238 238 240 250 254 254 256 260 264 266 269 273 274 274 269 267 268 266 264 267 271 276 278 276 275 274 278 286 291 294 297 300 301 301 300 299 298 297 297 296 296 297 298 300 302 302 301 299
242 242 242 243 249 251 253 255 259 263 265 267 270 273 273 269 268 266 264 265 267 269 272 276 278 278 277 278 282 288 292 295 297 298 297 296 295 294 294 295 296 297 297 298 298 299 301 300 299
244 244 243 244 246 250 253 256 259 262 262 265 269 271 271 269 267 263 264 266 267 268 271 275 279 282 284 284 284 286 291 295 296 296 296 296 294 294 294 295 296 298 298 299 299 299 299 299 298
251 249 247 247 247 250 255 256 257 263 265 266 268 270 270 268 267 263 262 263 265 267 270 274 280 284 286 287 285 288 292 296 297 296 296 295 295 294 295 296 296 297 298 299 299 299 298 297 296
255 254 253 252 252 252 256 261 261 265 270 270 270 270 269 267 265 262 261 261 263 265 269 274 279 283 286 287 288 290 292 294 296 296 296 297 298 297 296 297 297 297 297 297 297 297 296 295 295
263 262 261 259 257 257 258 263 266 266 272 271 269 269 267 266 265 262 261 262 264 267 270 274 277 281 284 286 287 290 292 294 296 298 299 300 300 300 299 298 298 297 296 295 295 295 294 294 295
266 264 264 264 263 266 267 264 265 261 267 272 272 271 269 268 267 265 263 262 264 266 270 273 277 280 282 284 287 290 293 295 296 298 299 299 300 301 301 298 297 297 295 294 294 294 294 294 294
268 265 263 263 264 268 268 270 268 266 271 272 272 271 271 270 270 270 268 267 266 267 270 274 277 279 281 283 287 291 293 295 297 300 300 299 300 301 302 300 298 296 294 293 293 294 294 294 293
264 267 269 267 266 264 261 264 272 278 276 272 269 269 270 273 275 275 273 272 270 269 272 275 278 280 282 286 290 293 295 296 298 300 300 301 301 301 301 298 296 294 294 294 294 294 294 293 293
262 263 265 267 269 268 270 272 278 279 280 280 277 274 273 273 275 276 275 274 272 273 275 278 280 282 285 289 292 296 299 299 300 301 302 303 303 300 298 297 295 295 295 295 295 294 294 294 294
258 260 264 265 262 265 271 272 270 270 279 282 281 278 274 273 274 275 275 275 275 276 278 280 282 285 288 291 295 300 301 303 303 303 303 304 302 300 298 297 297 297 297 296 296 296 296 296 295
248 253 256 259 263 269 272 273 273 276 282 284 282 279 279 278 277 277 277 277 277 279 281 284 286 288 291 294 299 302 302 302 302 302 303 303 300 298 298 298 298 298 297 297 297 298 297 297 296
Height
5897 5898 5899 5902 5905 5908 5910 5909 5908 5908 5907 5906 5905 5904 5903 5902 5901 5902 5898 5896 5895 5894 5893 5893 5892 5892 5891 5891 5891 5891 5892 5892 5891 5891 5891 5891 5891 5891 5891 5891 5892 5892 5892 5892 5893 5893 5893 5894 5894
5895 5897 5899 5901 5904 5910 5910 5908 5907 5906 5906 5905 5904 5903 5901 5900 5898 5897 5895 5894 5894 5893 5892 5891 5891 5890 5890 5890 5889 5889 5889 5889 5889 5889 5889 5888 5888 5888 5888 5888 5888 5889 5889 5889 5889 5889 5890 5890 5891
5894 5896 5899 5901 5904 5910 5909 5907 5906 5905 5904 5904 5903 5902 5901 5899 5897 5896 5895 5894 5893 5892 5891 5890 5890 5889 5889 5888 5888 5887 5887 5887 5887 5886 5886 5886 5886 5886 5886 5885 5885 5885 5885 5885 5886 5886 5886 5886 5886
5894 5896 5899 5902 5904 5905 5905 5906 5905 5904 5903 5903 5902 5901 5899 5897 5896 5895 5894 5893 5892 5891 5890 5890 5889 5888 5887 5886 5886 5885 5885 5885 5884 5884 5884 5884 5884 5884 5883 5883 5883 5883 5882 5882 5882 5882 5881 5881 5881
5894 5896 5899 5902 5904 5904 5905 5904 5904 5903 5903 5902 5901 5899 5897 5896 5895 5894 5893 5892 5891 5890 5889 5888 5888 5887 5886 5885 5884 5884 5883 5883 5883 5883 5883 5882 5882 5882 5881 5881 5881 5880 5880 5879 5879 5878 5878 5878 5877
5894 5897 5900 5903 5904 5904 5904 5904 5904 5904 5903 5901 5900 5898 5896 5895 5894 5893 5892 5891 5890 5889 5888 5887 5886 5885 5884 5884 5883 5883 5882 5882 5881 5881 5881 5880 5880 5880 5879 5879 5878 5878 5878 5877 5876 5875 5875 5874 5873
5894 5896 5898 5901 5902 5903 5903 5903 5903 5903 5902 5901 5900 5898 5896 5895 5893 5892 5891 5890 5889 5888 5887 5886 5885 5884 5883 5882 5882 5881 5880 5880 5879 5879 5879 5878 5877 5877 5876 5876 5875 5875 5874 5874 5873 5872 5871 5870 5869
5892 5896 5897 5899 5901 5902 5903 5902 5903 5903 5903 5901 5899 5898 5896 5895 5893 5892 5891 5889 5888 5887 5886 5885 5884 5883 5882 5881 5880 5879 5878 5878 5877 5876 5875 5875 5874 5873 5872 5872 5871 5870 5870 5869 5868 5867 5866 5865 5865
5891 5895 5897 5897 5899 5900 5901 5901 5902 5901 5901 5899 5898 5897 5896 5894 5892 5891 5890 5889 5888 5887 5886 5884 5883 5882 5880 5879 5878 5877 5876 5875 5874 5873 5872 5871 5870 5869 5868 5868 5867 5866 5865 5864 5863 5862 5861 5860 5859
5889 5893 5894 5895 5896 5897 5899 5900 5900 5899 5899 5897 5897 5896 5894 5893 5892 5891 5889 5888 5887 5886 5885 5883 5882 5880 5879 5877 5876 5875 5873 5872 5871 5869 5868 5867 5866 5865 5864 5863 5862 5861 5860 5859 5858 5857 5856 5854 5853
5887 5889 5890 5892 5893 5895 5896 5897 5898 5897 5897 5896 5895 5894 5893 5891 5890 5890 5888 5887 5886 5885 5884 5882 5880 5878 5877 5875 5873 5871 5870 5868 5867 5866 5864 5863 5862 5861 5860 5859 5858 5856 5855 5854 5853 5851 5850 5849 5847
5885 5886 5887 5889 5891 5892 5893 5895 5895 5895 5896 5895 5894 5892 5891 5890 5889 5888 5887 5886 5884 5883 5882 5880 5878 5877 5875 5872 5870 5868 5867 5865 5863 5862 5861 5859 5858 5857 5856 5855 5854 5852 5851 5849 5848 5846 5845 5843 5841
5881 5883 5884 5885 5887 5888 5890 5891 5892 5892 5893 5891 5891 5890 5889 5888 5887 5886 5886 5884 5883 5881 5880 5878 5877 5875 5872 5870 5868 5866 5864 5862 5861 5859 5858 5856 5855 5854 5852 5851 5849 5848 5846 5844 5842 5841 5839 5837 5834
5877 5879 5880 5881 5883 5884 5886 5887 5888 5888 5888 5888 5888 5888 5887 5885 5884 5884 5883 5882 5881 5879 5877 5876 5874 5873 5870 5868 5866 5864 5862 5860 5858 5856 5855 5853 5852 5850 5849 5847 5845 5843 5841 5838 5836 5834 5831 5829 5826
5873 5876 5877 5877 5878 5880 5883 5884 5884 5883 5884 5885 5885 5884 5884 5882 5880 5880 5880 5879 5878 5876 5875 5873 5871 5870 5868 5866 5864 5862 5860 5858 5856 5854 5852 5850 5848 5846 5844 5842 5840 5837 5835 5832 5830 5827 5824 5821 5818
5869 5872 5874 5873 5874 5875 5880 5882 5877 5878 5879 5880 5880 5880 5880 5878 5877 5876 5876 5876 5874 5873 5871 5870 5868 5867 5865 5863 5861 5859 5856 5854 5852 5850 5848 5846 5843 5841 5839 5836 5834 5831 5828 5825 5823 5820 5816 5813 5809
5864 5867 5870 5870 5868 5870 5873 5877 5870 5873 5874 5875 5875 5875 5875 5874 5872 5871 5871 5871 5870 5869 5867 5865 5864 5862 5860 5859 5857 5855 5852 5850 5848 5845 5843 5841 5838 5836 5833 5830 5827 5824 5821 5818 5815 5811 5808 5804 5800
5858 5861 5863 5865 5861 5864 5866 5867 5864 5867 5868 5869 5870 5870 5869 5869 5868 5866 5866 5866 5865 5864 5863 5861 5859 5857 5855 5853 5851 5850 5848 5845 5843 5840 5838 5836 5833 5830 5827 5824 5820 5817 5814 5810 5806 5802 5798 5793 5789
5849 5852 5855 5858 5855 5858 5858 5858 5858 5859 5861 5863 5864 5864 5864 5863 5862 5861 5860 5860 5860 5859 5857 5855 5853 5851 5849 5847 5845 5843 5841 5839 5837 5834 5832 5829 5826 5823 5820 5816 5813 5808 5805 5801 5796 5792 5786 5781 5776
5842 5845 5848 5851 5850 5851 5850 5850 5851 5851 5854 5855 5856 5857 5858 5857 5856 5856 5855 5854 5854 5853 5851 5849 5846 5843 5841 5839 5837 5836 5834 5832 5830 5827 5824 5822 5818 5815 5811 5807 5803 5799 5794 5790 5785 5780 5774 5767 5761
5835 5838 5841 5842 5842 5842 5842 5843 5845 5843 5846 5847 5849 5850 5850 5850 5850 5850 5849 5848 5847 5846 5844 5842 5839 5836 5833 5831 5829 5827 5825 5823 5821 5818 5815 5812 5809 5805 5801 5797 5792 5788 5782 5777 5772 5766 5760 5753 5746
5829 5831 5832 5833 5835 5835 5833 5834 5838 5835 5835 5839 5841 5842 5842 5842 5842 5843 5842 5841 5840 5839 5837 5834 5831 5829 5826 5823 5819 5817 5815 5814 5811 5808 5805 5801 5797 5794 5790 5785 5780 5775 5769 5763 5757 5751 5745 5739 5732
5821 5822 5824 5825 5826 5827 5825 5825 5831 5827 5827 5831 5833 5833 5833 5834 5834 5835 5835 5834 5833 5831 5829 5826 5824 5821 5818 5814 5811 5809 5807 5804 5801 5798 5794 5790 5786 5782 5777 5772 5767 5761 5755 5749 5743 5737 5730 5723 5717
5815 5816 5817 5817 5818 5817 5820 5819 5821 5823 5819 5823 5824 5825 5825 5826 5826 5827 5827 5826 5825 5823 5821 5818 5816 5813 5809 5806 5803 5801 5798 5795 5791 5787 5783 5778 5773 5769 5763 5758 5752 5747 5741 5735 5728 5722 5716 5709 5702
5808 5810 5810 5810 5810 5811 5813 5810 5813 5813 5812 5814 5815 5816 5816 5817 5818 5818 5818 5818 5816 5814 5812 5809 5807 5804 5801 5798 5795 5792 5789 5785 5781 5776 5772 5766 5761 5755 5750 5744 5738 5732 5726 5720 5713 5707 5701 5694 5688
5800 5802 5805 5806 5808 5808 5806 5802 5806 5803 5803 5805 5807 5807 5808 5808 5808 5808 5808 5808 5806 5805 5802 5800 5798 5795 5792 5789 5786 5783 5779 5775 5770 5765 5760 5754 5748 5742 5737 5731 5724 5718 5712 5706 5699 5692 5686 5679 5673
5794 5795 5797 5797 5797 5798 5799 5799 5797 5795 5796 5798 5799 5799 5800 5800 5800 5799 5798 5797 5796 5794 5793 5790 5788 5785 5783 5780 5777 5773 5768 5764 5759 5754 5748 5742 5736 5729 5723 5717 5711 5705 5698 5691 5685 5678 5671 5664 5658
5788 5789 5790 5789 5790 5790 5792 5793 5795 5792 5791 5791 5791 5791 5791 5792 5791 5790 5789 5788 5787 5785 5783 5781 5779 5776 5773 5770 5766 5762 5757 5752 5747 5741 5736 5730 5724 5717 5711 5704 5698 5691 5684 5677 5670 5663 5656 5650 5643
5781 5782 5782 5783 5785 5785 5786 5790 5787 5784 5784 5784 5784 5784 5784 5784 5783 5782 5781 5779 5778 5776 5775 5772 5769 5766 5763 5759 5755 5751 5745 5740 5735 5729 5723 5718 5711 5704 5698 5691 5684 5678 5671 5663 5656 5649 5642 5636 5630
5774 5775 5777 5777 5778 5778 5778 5783 5778 5776 5776 5777 5777 5776 5776 5776 5775 5774 5773 5771 5769 5768 5765 5763 5760 5756 5753 5749 5744 5740 5734 5729 5723 5717 5711 5704 5698 5692 5685 5678 5672 5664 5657 5649 5642 5635 5628 5622 5615